Kansas City, MO

12:23 PM CST on February 20, 2017 (GMT -0600)
Kansas City International

Weather History for KMCI - May, 2013

Change the Weather History Date:

Saturday, May 4, 2013

  Actual Average Record
Temperature  
Mean Temperature 43 °F 61 °F  
Max Temperature 51 °F 71 °F 92 °F (1952)
Min Temperature 34 °F 51 °F 27 °F (1907)
Degree Days  
Heating Degree Days 22 5  
Month to date heating degree days 85 23  
Since 1 July heating degree days 5114 5043  
Cooling Degree Days 0 1  
Month to date cooling degree days 0 4  
Year to date cooling degree days 13 32  
Moisture  
Dew Point 38 °F    
Average Humidity 84    
Maximum Humidity 96    
Minimum Humidity 71    
Precipitation  
Precipitation 0.10 in 0.17 in 1.39 in (1999)
Month to date precipitation 1.55 0.67  
Year to date precipitation 10.02 9.27  
Snow  
Snow T in 0.00 in T in (2013)
Month to date snowfall 0.5 0.0  
Since 1 July snowfall 31.8 18.8  
Snow Depth 0.00 in    
Sea Level Pressure  
Sea Level Pressure 29.93 in    
Wind  
Wind Speed 10 mph (North)    
Max Wind Speed 17 mph    
Max Gust Speed 22 mph    
Visibility 6 miles    
Events Rain    
T = Trace of Precipitation, MM = Missing Value Source: NWS Daily Summary

Daily Weather History Graph

Daily Weather History Graph

Search for Another Location

Airport or City:

Trip Planner

Search our weather history database for the weather conditions in past years. The results will help you decide how hot, cold, wet, or windy it might be!

Date:

Astronomy

May. 04, 2013 Rise Set
Actual Time 6:16 AM CDT 8:15 PM CDT
Civil Twilight 5:47 AM CDT 8:44 PM CDT
Nautical Twilight 5:11 AM CDT 9:20 PM CDT
Astronomical Twilight 4:33 AM CDT 9:59 PM CDT
Moon 3:13 AM CDT (5/4) 3:15 PM CDT (5/4)
Length of Visible Light 14h 57m
Length of Day
13h 59m
Waning Crescent, 27% of the Moon is Illuminated
May 4
Waning Crescent
May 9
New
May 17
First Quarter
May 24
Full
May 31
Last Quarter

Hourly Weather History & Observations

Time (CDT) Temp. Windchill Dew Point Humidity Pressure Visibility Wind Dir Wind Speed Gust Speed Precip Events Conditions
12:43 AM 35.6 °F 25.5 °F 30.2 °F 81% 29.87 in 7.0 mi North 17.3 mph 24.2 mph 0.00 in Rain Light Rain
12:53 AM 35.1 °F 26.4 °F 30.9 °F 85% 29.90 in 9.0 mi North 12.7 mph 24.2 mph 0.00 in Rain Light Rain
1:43 AM 33.8 °F 24.8 °F 32.0 °F 93% 29.87 in 3.0 mi NNW 12.7 mph - 0.01 in   Light Ice Pellets
1:53 AM 34.0 °F 25.5 °F 32.0 °F 92% 29.89 in 2.0 mi NNW 11.5 mph - 0.03 in Rain Light Rain
2:37 AM 35.6 °F 27.1 °F 32.0 °F 87% 29.85 in 3.0 mi NNW 12.7 mph - 0.02 in Rain Light Rain
2:53 AM 35.1 °F 26.9 °F 32.0 °F 89% 29.87 in 3.0 mi NNW 11.5 mph - 0.03 in Rain Light Rain
3:53 AM 35.1 °F 27.4 °F 32.0 °F 89% 29.86 in 6.0 mi NNW 10.4 mph - 0.02 in Rain Light Rain
4:53 AM 35.1 °F 26.4 °F 33.1 °F 92% 29.85 in 6.0 mi NNW 12.7 mph - 0.01 in Rain Light Rain
5:53 AM 35.1 °F 26.9 °F 33.1 °F 92% 29.85 in 3.0 mi North 11.5 mph - 0.01 in   Light Drizzle
6:51 AM 35.6 °F 27.5 °F 33.8 °F 93% 29.84 in 2.5 mi North 11.5 mph - 0.00 in   Light Drizzle
6:53 AM 36.0 °F 27.5 °F 33.1 °F 89% 29.86 in 2.5 mi North 12.7 mph - 0.00 in   Light Drizzle
7:53 AM 37.0 °F 28.9 °F 34.0 °F 89% 29.88 in 2.5 mi North 12.7 mph - 0.00 in   Overcast
8:20 AM 37.4 °F 29.3 °F 35.6 °F 93% 29.86 in 3.0 mi North 12.7 mph - N/A   Overcast
8:53 AM 37.9 °F 30.0 °F 36.0 °F 93% 29.88 in 3.0 mi North 12.7 mph 20.7 mph N/A   Overcast
9:08 AM 39.2 °F 30.8 °F 35.6 °F 87% 29.87 in 2.0 mi North 15.0 mph - N/A   Overcast
9:53 AM 39.9 °F 32.5 °F 37.0 °F 89% 29.91 in 2.0 mi North 12.7 mph - N/A   Overcast
10:53 AM 42.1 °F 36.1 °F 39.0 °F 89% 29.93 in 2.0 mi NNE 10.4 mph - N/A   Overcast
11:28 AM 42.8 °F 36.6 °F 39.2 °F 87% 29.91 in 8.0 mi NNE 11.5 mph - N/A   Overcast
11:53 AM 44.1 °F 37.7 °F 39.9 °F 85% 29.94 in 9.0 mi NNE 12.7 mph - N/A   Overcast
12:53 PM 45.0 °F 39.3 °F 39.9 °F 82% 29.95 in 10.0 mi NNE 11.5 mph - N/A   Overcast
1:53 PM 46.9 °F - 39.9 °F 77% 29.95 in 10.0 mi North 8.1 mph - N/A   Overcast
2:53 PM 46.9 °F - 41.0 °F 80% 29.96 in 10.0 mi NNE 10.4 mph - N/A   Overcast
3:53 PM 50.0 °F - 42.1 °F 74% 29.96 in 10.0 mi NNE 8.1 mph - N/A   Overcast
4:53 PM 48.9 °F - 41.0 °F 74% 29.98 in 10.0 mi East 5.8 mph - N/A   Overcast
5:53 PM 50.0 °F - 41.0 °F 71% 30.00 in 10.0 mi Variable 4.6 mph - N/A   Overcast
6:53 PM 48.9 °F - 41.0 °F 74% 30.01 in 10.0 mi NE 3.5 mph - N/A   Overcast
7:31 PM 48.2 °F - 42.8 °F 82% 30.00 in 10.0 mi Calm Calm - N/A   Overcast
7:53 PM 48.9 °F - 44.1 °F 83% 30.02 in 10.0 mi NNW 3.5 mph - 0.00 in Rain Light Rain
8:53 PM 48.0 °F - 46.0 °F 93% 30.02 in 6.0 mi NNW 4.6 mph - 0.00 in   Overcast
9:03 PM 48.2 °F - 46.4 °F 93% 30.01 in 5.0 mi NNW 5.8 mph - N/A   Overcast
9:12 PM 48.2 °F - 46.4 °F 93% 30.01 in 2.0 mi NW 5.8 mph - N/A   Overcast
9:51 PM 48.2 °F - 46.4 °F 93% 30.02 in 2.0 mi NNW 6.9 mph - N/A   Overcast
9:53 PM 48.0 °F - 46.0 °F 93% 30.03 in 7.0 mi NNW 8.1 mph - N/A   Overcast
10:53 PM 48.9 °F - 46.0 °F 90% 30.04 in 4.0 mi NNW 10.4 mph - N/A   Overcast
11:53 PM 48.0 °F - 46.0 °F 93% 30.04 in 7.0 mi North 8.1 mph - N/A   Overcast